| time (UTC) | temp F | wind direction | speed knots | gust knots | rain 1hr in | rain 24hr in | rain mn in | humidity % | barometer mb |
| 20260906141459 | 86 | 304 | 2.6 | 3.5 | 0.00 | 0.00 | 0.00 | 77 | 1013.4 |
| 20260906140958 | 86 | 310 | 2.6 | 6.1 | 0.00 | 0.00 | 0.00 | 78 | 1013.4 |
| 20260906140459 | 86 | 318 | 3.5 | 6.1 | 0.00 | 0.00 | 0.00 | 78 | 1013.5 |
| 20260906135958 | 86 | 310 | 1.7 | 4.3 | 0.00 | 0.00 | 0.00 | 79 | 1013.6 |
| 20260906135458 | 85 | 303 | 2.6 | 4.3 | 0.00 | 0.00 | 0.00 | 79 | 1013.6 |
| 20260906134958 | 85 | 297 | 0.9 | 1.7 | 0.00 | 0.00 | 0.00 | 81 | 1013.6 |
| 20260906134458 | 84 | 278 | 2.6 | 3.5 | 0.00 | 0.00 | 0.00 | 84 | 1013.6 |
| 20260906133958 | 83 | 289 | 4.3 | 5.2 | 0.00 | 0.00 | 0.00 | 85 | 1013.5 |
| 20260906133458 | 83 | 276 | 3.5 | 3.5 | 0.00 | 0.00 | 0.00 | 86 | 1013.5 |
| 20260906132958 | 83 | 273 | 4.3 | 5.2 | 0.00 | 0.00 | 0.00 | 87 | 1013.5 |
| 20260906132458 | 83 | 274 | 5.2 | 5.2 | 0.00 | 0.00 | 0.00 | 87 | 1013.6 |
| 20260906131959 | 83 | 273 | 5.2 | 6.1 | 0.00 | 0.00 | 0.00 | 86 | 1013.5 |
| 20260906131500 | 83 | 278 | 5.2 | 6.1 | 0.00 | 0.00 | 0.00 | 86 | 1013.5 |
| 20260906130958 | 83 | 290 | 3.5 | 5.2 | 0.00 | 0.00 | 0.00 | 86 | 1013.6 |
| 20260906130459 | 83 | 286 | 3.5 | 4.3 | 0.00 | 0.00 | 0.00 | 87 | 1013.6 |
| 20260906125958 | 83 | 276 | 5.2 | 6.1 | 0.00 | 0.00 | 0.00 | 87 | 1013.6 |
| 20260906125458 | 83 | 286 | 3.5 | 5.2 | 0.00 | 0.00 | 0.00 | 87 | 1013.6 |
| 20260906124958 | 82 | 299 | 3.5 | 4.3 | 0.00 | 0.00 | 0.00 | 86 | 1013.5 |
| 20260906124458 | 82 | 283 | 3.5 | 3.5 | 0.00 | 0.00 | 0.00 | 87 | 1013.4 |
| 20260906123959 | 82 | 275 | 3.5 | 3.5 | 0.00 | 0.00 | 0.00 | 86 | 1013.3 |
| 20260906123458 | 82 | 286 | 1.7 | 2.6 | 0.00 | 0.00 | 0.00 | 87 | 1013.3 |
| 20260906122958 | 82 | 290 | 1.7 | 2.6 | 0.00 | 0.00 | 0.00 | 87 | 1013.2 |
| 20260906122458 | 81 | 290 | 1.7 | 2.6 | 0.00 | 0.00 | 0.00 | 88 | 1013.2 |
| 20260906121958 | 81 | 287 | 1.7 | 3.5 | 0.00 | 0.00 | 0.00 | 88 | 1013.3 |
| 20260906121458 | 81 | 298 | 1.7 | 3.5 | 0.00 | 0.00 | 0.00 | 89 | 1013.3 |
| 20260906120958 | 81 | 290 | 2.6 | 3.5 | 0.00 | 0.00 | 0.00 | 89 | 1013.3 |
| 20260906120458 | 80 | 287 | 1.7 | 3.5 | 0.00 | 0.00 | 0.00 | 89 | 1013.2 |
| 20260906115958 | 80 | 295 | 1.7 | 2.6 | 0.00 | 0.00 | 0.00 | 90 | 1013.2 |
| 20260906115458 | 80 | 256 | 1.7 | 2.6 | 0.00 | 0.00 | 0.00 | 90 | 1013.1 |
| 20260906114958 | 80 | 290 | 1.7 | 2.6 | 0.00 | 0.00 | 0.00 | 91 | 1013.0 |
| 20260906114458 | 79 | 299 | 1.7 | 1.7 | 0.00 | 0.00 | 0.00 | 91 | 1012.9 |
| 20260906113958 | 79 | 299 | 1.7 | 2.6 | 0.00 | 0.00 | 0.00 | 92 | 1012.8 |
| 20260906113458 | 79 | 295 | 1.7 | 1.7 | 0.00 | 0.00 | 0.00 | 92 | 1012.7 |
| 20260906113002 | 79 | 305 | 2.6 | 3.5 | 0.00 | 0.00 | 0.00 | 92 | 1012.6 |
| 20260906112459 | 79 | 293 | 1.7 | 1.7 | 0.00 | 0.00 | 0.00 | 92 | 1012.6 |
| 20260906111958 | 79 | 285 | 0.9 | 1.7 | 0.00 | 0.00 | 0.00 | 92 | 1012.6 |
| 20260906111458 | 79 | 299 | 1.7 | 3.5 | 0.00 | 0.00 | 0.00 | 92 | 1012.7 |
| 20260906110958 | 79 | 304 | 1.7 | 2.6 | 0.00 | 0.00 | 0.00 | 92 | 1012.7 |
| 20260906110458 | 79 | 308 | 1.7 | 2.6 | 0.00 | 0.00 | 0.00 | 92 | 1012.7 |
| 20260906105959 | 79 | 306 | 2.6 | 3.5 | 0.00 | 0.00 | 0.00 | 91 | 1012.7 |
| 20260906105458 | 79 | 309 | 2.6 | 3.5 | 0.00 | 0.00 | 0.00 | 91 | 1012.7 |
| 20260906104958 | 79 | 309 | 1.7 | 3.5 | 0.00 | 0.00 | 0.00 | 91 | 1012.7 |
| 20260906104458 | 79 | 315 | 2.6 | 4.3 | 0.00 | 0.00 | 0.00 | 91 | 1012.7 |
| 20260906104000 | 79 | 315 | 2.6 | 4.3 | 0.00 | 0.00 | 0.00 | 91 | 1012.6 |
| 20260906103458 | 79 | 309 | 1.7 | 3.5 | 0.00 | 0.00 | 0.00 | 91 | 1012.6 |
| 20260906102958 | 79 | 303 | 1.7 | 3.5 | 0.00 | 0.00 | 0.00 | 91 | 1012.6 |
| 20260906102459 | 79 | 323 | 4.3 | 5.2 | 0.00 | 0.00 | 0.00 | 91 | 1012.5 |
| 20260906101958 | 79 | 319 | 1.7 | 3.5 | 0.00 | 0.00 | 0.00 | 91 | 1012.4 |
| 20260906101458 | 79 | 320 | 2.6 | 4.3 | 0.00 | 0.00 | 0.00 | 91 | 1012.5 |
| 20260906100958 | 79 | 311 | 2.6 | 3.5 | 0.00 | 0.00 | 0.00 | 91 | 1012.4 |
| 20260906100459 | 79 | 317 | 3.5 | 4.3 | 0.00 | 0.00 | 0.00 | 91 | 1012.4 |
| 20260906095959 | 80 | 325 | 3.5 | 6.1 | 0.00 | 0.00 | 0.00 | 91 | 1012.3 |
| 20260906095459 | 79 | 317 | 3.5 | 5.2 | 0.00 | 0.00 | 0.00 | 91 | 1012.3 |
| 20260906094958 | 79 | 318 | 2.6 | 4.3 | 0.00 | 0.00 | 0.00 | 91 | 1012.2 |
| 20260906094459 | 79 | 314 | 3.5 | 4.3 | 0.00 | 0.00 | 0.00 | 91 | 1012.2 |
| 20260906093958 | 79 | 319 | 4.3 | 5.2 | 0.00 | 0.00 | 0.00 | 91 | 1012.2 |
| 20260906093500 | 79 | 321 | 5.2 | 6.1 | 0.00 | 0.00 | 0.00 | 91 | 1012.1 |
| 20260906092958 | 79 | 310 | 1.7 | 3.5 | 0.00 | 0.00 | 0.00 | 91 | 1012.0 |
| 20260906092458 | 79 | 320 | 4.3 | 7.0 | 0.00 | 0.00 | 0.00 | 91 | 1012.0 |
| 20260906091958 | 79 | 316 | 2.6 | 4.3 | 0.00 | 0.00 | 0.00 | 91 | 1011.9 |
| 20260906091458 | 79 | 317 | 3.5 | 5.2 | 0.00 | 0.00 | 0.00 | 91 | 1011.9 |
| 20260906090958 | 79 | 308 | 2.6 | 4.3 | 0.00 | 0.00 | 0.00 | 91 | 1012.0 |
| 20260906090459 | 80 | 314 | 2.6 | 4.3 | 0.00 | 0.00 | 0.00 | 91 | 1011.9 |
| 20260906085959 | 80 | 314 | 3.5 | 5.2 | 0.00 | 0.00 | 0.00 | 91 | 1011.9 |
| 20260906085458 | 80 | 296 | 1.7 | 4.3 | 0.00 | 0.00 | 0.00 | 91 | 1011.8 |
| 20260906084958 | 80 | 311 | 3.5 | 4.3 | 0.00 | 0.00 | 0.00 | 91 | 1011.8 |
| 20260906084459 | 80 | 305 | 2.6 | 3.5 | 0.00 | 0.00 | 0.00 | 91 | 1011.7 |
| 20260906083959 | 80 | 308 | 1.7 | 4.3 | 0.00 | 0.00 | 0.00 | 90 | 1011.7 |
| 20260906083458 | 80 | 303 | 1.7 | 2.6 | 0.00 | 0.00 | 0.00 | 90 | 1011.7 |
| 20260906082959 | 80 | 310 | 2.6 | 5.2 | 0.00 | 0.00 | 0.00 | 90 | 1011.8 |
| 20260906082459 | 80 | 309 | 2.6 | 5.2 | 0.00 | 0.00 | 0.00 | 90 | 1011.8 |
| 20260906081958 | 80 | 316 | 3.5 | 5.2 | 0.00 | 0.00 | 0.00 | 90 | 1011.8 |
| 20260906081458 | 80 | 299 | 2.6 | 5.2 | 0.00 | 0.00 | 0.00 | 90 | 1011.8 |
| 20260906080958 | 80 | 315 | 2.6 | 4.3 | 0.00 | 0.00 | 0.00 | 90 | 1011.7 |
| 20260906080459 | 81 | 316 | 2.6 | 4.3 | 0.00 | 0.00 | 0.00 | 90 | 1011.7 |
| 20260906075958 | 81 | 301 | 1.7 | 3.5 | 0.00 | 0.00 | 0.00 | 89 | 1011.7 |
| 20260906075458 | 81 | 317 | 2.6 | 4.3 | 0.00 | 0.00 | 0.00 | 89 | 1011.8 |
| 20260906074959 | 82 | 303 | 3.5 | 5.2 | 0.00 | 0.00 | 0.00 | 89 | 1011.8 |
| 20260906074458 | 82 | 291 | 3.5 | 4.3 | 0.00 | 0.00 | 0.00 | 89 | 1011.7 |
| 20260906073959 | 82 | 291 | 4.3 | 6.1 | 0.00 | 0.00 | 0.00 | 88 | 1011.7 |
| 20260906073458 | 82 | 283 | 7.0 | 7.8 | 0.00 | 0.00 | 0.00 | 88 | 1011.7 |
| 20260906072958 | 82 | 281 | 6.1 | 7.8 | 0.00 | 0.00 | 0.00 | 89 | 1011.7 |
| 20260906072458 | 82 | 301 | 4.3 | 5.2 | 0.00 | 0.00 | 0.00 | 88 | 1011.8 |
| 20260906071958 | 82 | 280 | 7.8 | 7.8 | 0.00 | 0.00 | 0.00 | 88 | 1011.8 |
| 20260906071458 | 82 | 283 | 6.1 | 7.8 | 0.00 | 0.00 | 0.00 | 89 | 1011.8 |
| 20260906070958 | 82 | 296 | 4.3 | 6.1 | 0.00 | 0.00 | 0.00 | 88 | 1011.8 |
| 20260906070458 | 82 | 286 | 5.2 | 6.1 | 0.00 | 0.00 | 0.00 | 88 | 1011.8 |
| 20260906065958 | 82 | 281 | 5.2 | 6.1 | 0.00 | 0.00 | 0.00 | 88 | 1011.7 |
| 20260906065459 | 82 | 304 | 2.6 | 3.5 | 0.00 | 0.00 | 0.00 | 89 | 1011.8 |
| 20260906064958 | 82 | 303 | 3.5 | 6.1 | 0.00 | 0.00 | 0.00 | 88 | 1011.9 |
| 20260906064458 | 82 | 297 | 5.2 | 7.0 | 0.00 | 0.00 | 0.00 | 88 | 1011.9 |
| 20260906063959 | 82 | 288 | 6.1 | 7.8 | 0.00 | 0.00 | 0.00 | 88 | 1011.8 |
| 20260906063458 | 82 | 293 | 6.1 | 7.8 | 0.00 | 0.00 | 0.00 | 88 | 1011.8 |
| 20260906062958 | 82 | 285 | 7.0 | 8.7 | 0.00 | 0.00 | 0.00 | 87 | 1011.8 |
| 20260906062459 | 82 | 282 | 6.1 | 7.8 | 0.00 | 0.00 | 0.00 | 87 | 1011.8 |
| 20260906061958 | 82 | 278 | 7.8 | 8.7 | 0.00 | 0.00 | 0.00 | 88 | 1011.8 |
| 20260906061501 | 82 | 280 | 6.1 | 7.8 | 0.00 | 0.00 | 0.00 | 88 | 1011.8 |
| 20260906060959 | 82 | 282 | 7.0 | 7.0 | 0.00 | 0.00 | 0.00 | 88 | 1011.9 |
| 20260906060458 | 82 | 270 | 6.1 | 7.0 | 0.00 | 0.00 | 0.00 | 88 | 1011.9 |
| 20260906055958 | 82 | 263 | 7.8 | 8.7 | 0.00 | 0.00 | 0.00 | 88 | 1012.0 |
| 20260906055459 | 82 | 260 | 7.0 | 7.8 | 0.00 | 0.00 | 0.00 | 88 | 1012.0 |
| 20260906054959 | 82 | 264 | 6.1 | 7.0 | 0.00 | 0.00 | 0.00 | 87 | 1012.2 |
| 20260906054459 | 82 | 268 | 6.1 | 7.0 | 0.00 | 0.00 | 0.00 | 88 | 1012.2 |
| 20260906053959 | 82 | 265 | 7.8 | 8.7 | 0.00 | 0.00 | 0.00 | 88 | 1012.1 |
| 20260906053458 | 82 | 260 | 7.0 | 7.8 | 0.00 | 0.00 | 0.00 | 88 | 1012.2 |
| 20260906052958 | 82 | 262 | 7.8 | 8.7 | 0.00 | 0.00 | 0.00 | 88 | 1012.3 |
| 20260906052459 | 82 | 269 | 7.0 | 7.8 | 0.00 | 0.00 | 0.00 | 88 | 1012.5 |
| 20260906051958 | 82 | 274 | 6.1 | 7.0 | 0.00 | 0.00 | 0.00 | 88 | 1012.6 |
| 20260906051458 | 82 | 275 | 6.1 | 6.1 | 0.00 | 0.00 | 0.00 | 88 | 1012.6 |
| 20260906050959 | 82 | 272 | 6.1 | 7.0 | 0.00 | 0.00 | 0.00 | 88 | 1012.7 |
| 20260906050458 | 82 | 270 | 6.1 | 7.8 | 0.00 | 0.00 | 0.00 | 88 | 1012.7 |
| 20260906045958 | 82 | 281 | 7.0 | 7.8 | 0.00 | 0.00 | 0.00 | 87 | 1012.6 |
| 20260906045458 | 82 | 282 | 7.8 | 8.7 | 0.00 | 0.00 | 0.00 | 87 | 1012.6 |
| 20260906044958 | 82 | 292 | 5.2 | 7.0 | 0.00 | 0.00 | 0.00 | 88 | 1012.6 |
| 20260906044458 | 82 | 292 | 2.6 | 3.5 | 0.00 | 0.00 | 0.00 | 88 | 1012.6 |
| 20260906043958 | 82 | 298 | 3.5 | 4.3 | 0.00 | 0.00 | 0.00 | 89 | 1012.7 |
| 20260906043459 | 82 | 313 | 2.6 | 3.5 | 0.00 | 0.00 | 0.00 | 88 | 1012.7 |
| 20260906042958 | 82 | 304 | 2.6 | 3.5 | 0.00 | 0.00 | 0.00 | 88 | 1012.8 |
| 20260906042458 | 82 | 291 | 2.6 | 2.6 | 0.00 | 0.00 | 0.00 | 88 | 1012.9 |
| 20260906041958 | 82 | 307 | 3.5 | 4.3 | 0.00 | 0.00 | 0.00 | 88 | 1012.8 |
| 20260906041458 | 82 | 290 | 3.5 | 5.2 | 0.00 | 0.00 | 0.00 | 88 | 1012.8 |
| 20260906040958 | 82 | 295 | 2.6 | 4.3 | 0.00 | 0.00 | 0.00 | 88 | 1012.9 |
| 20260906040458 | 82 | 308 | 3.5 | 4.3 | 0.00 | 0.00 | 0.00 | 87 | 1013.1 |
| 20260906035958 | 83 | 308 | 3.5 | 5.2 | 0.00 | 0.00 | 0.48 | 87 | 1013.0 |
| 20260906035458 | 83 | 303 | 3.5 | 5.2 | 0.00 | 0.00 | 0.48 | 87 | 1013.0 |
| 20260906034958 | 83 | 295 | 6.1 | 9.6 | 0.00 | 0.00 | 0.48 | 87 | 1013.1 |
| 20260906034458 | 83 | 284 | 7.0 | 8.7 | 0.00 | 0.00 | 0.48 | 87 | 1013.0 |
| 20260906033959 | 83 | 298 | 6.1 | 7.8 | 0.00 | 0.00 | 0.48 | 86 | 1013.0 |
| 20260906033458 | 83 | 290 | 7.8 | 10.4 | 0.00 | 0.00 | 0.48 | 86 | 1013.0 |
| 20260906032959 | 83 | 285 | 7.8 | 8.7 | 0.00 | 0.00 | 0.48 | 85 | 1012.8 |
| 20260906032501 | 83 | 283 | 7.8 | 11.3 | 0.00 | 0.00 | 0.48 | 85 | 1013.0 |
| 20260906031958 | 83 | 272 | 8.7 | 10.4 | 0.00 | 0.00 | 0.48 | 85 | 1012.9 |
| 20260906031458 | 84 | 273 | 8.7 | 10.4 | 0.00 | 0.00 | 0.48 | 85 | 1013.0 |
| 20260906030958 | 84 | 275 | 8.7 | 10.4 | 0.00 | 0.00 | 0.48 | 84 | 1013.0 |
| 20260906030459 | 84 | 273 | 9.6 | 10.4 | 0.00 | 0.00 | 0.48 | 84 | 1013.0 |
| 20260906025958 | 84 | 278 | 8.7 | 9.6 | 0.00 | 0.00 | 0.48 | 84 | 1012.9 |
| 20260906025458 | 84 | 268 | 9.6 | 11.3 | 0.00 | 0.00 | 0.48 | 84 | 1012.8 |
| 20260906024958 | 84 | 267 | 11.3 | 12.2 | 0.00 | 0.00 | 0.48 | 83 | 1012.7 |
| 20260906024458 | 84 | 260 | 9.6 | 11.3 | 0.00 | 0.00 | 0.48 | 83 | 1012.8 |
| 20260906023959 | 84 | 269 | 12.2 | 13.9 | 0.00 | 0.00 | 0.48 | 83 | 1012.7 |
| 20260906023459 | 84 | 264 | 10.4 | 11.3 | 0.00 | 0.00 | 0.48 | 84 | 1012.6 |
| 20260906022958 | 84 | 258 | 8.7 | 9.6 | 0.00 | 0.00 | 0.48 | 84 | 1012.7 |
| 20260906022458 | 84 | 261 | 9.6 | 10.4 | 0.00 | 0.00 | 0.48 | 84 | 1012.6 |
| 20260906021958 | 84 | 255 | 10.4 | 11.3 | 0.00 | 0.00 | 0.48 | 84 | 1012.5 |
| 20260906021459 | 84 | 256 | 8.7 | 9.6 | 0.00 | 0.00 | 0.48 | 85 | 1012.4 |
| 20260906020959 | 84 | 268 | 7.8 | 9.6 | 0.00 | 0.00 | 0.48 | 84 | 1012.5 |
| 20260906020458 | 84 | 257 | 7.8 | 7.8 | 0.00 | 0.00 | 0.48 | 84 | 1012.4 |
| 20260906015958 | 84 | 254 | 7.0 | 7.8 | 0.00 | 0.00 | 0.48 | 85 | 1012.4 |
| 20260906015458 | 85 | 249 | 7.8 | 8.7 | 0.00 | 0.00 | 0.48 | 84 | 1012.3 |
| 20260906014958 | 85 | 261 | 7.8 | 8.7 | 0.00 | 0.00 | 0.48 | 85 | 1012.3 |
| 20260906014458 | 85 | 264 | 7.0 | 7.8 | 0.00 | 0.00 | 0.48 | 84 | 1012.3 |
| 20260906013959 | 85 | 255 | 7.0 | 7.8 | 0.00 | 0.00 | 0.48 | 84 | 1012.2 |
| 20260906013459 | 85 | 259 | 7.8 | 7.8 | 0.00 | 0.00 | 0.48 | 84 | 1012.1 |
| 20260906012959 | 85 | 257 | 7.0 | 7.8 | 0.00 | 0.00 | 0.48 | 84 | 1012.1 |
| 20260906012458 | 85 | 249 | 7.0 | 7.8 | 0.00 | 0.00 | 0.48 | 84 | 1012.0 |
| 20260906011958 | 85 | 250 | 7.8 | 8.7 | 0.00 | 0.00 | 0.48 | 83 | 1011.9 |
| 20260906011458 | 85 | 259 | 7.8 | 8.7 | 0.00 | 0.00 | 0.48 | 83 | 1011.8 |
| 20260906010958 | 85 | 260 | 8.7 | 9.6 | 0.00 | 0.00 | 0.48 | 83 | 1011.9 |
| 20260906010459 | 85 | 263 | 7.8 | 8.7 | 0.00 | 0.00 | 0.48 | 82 | 1012.0 |
| 20260906005958 | 85 | 256 | 7.0 | 7.8 | 0.00 | 0.00 | 0.48 | 83 | 1012.0 |
| 20260906005458 | 85 | 252 | 7.8 | 8.7 | 0.00 | 0.00 | 0.48 | 82 | 1012.0 |
| 20260906004959 | 85 | 260 | 7.8 | 8.7 | 0.00 | 0.00 | 0.48 | 81 | 1011.9 |
| 20260906004503 | 85 | 251 | 7.0 | 7.8 | 0.00 | 0.00 | 0.48 | 82 | 1011.9 |
| 20260906003958 | 85 | 253 | 7.8 | 8.7 | 0.00 | 0.00 | 0.48 | 82 | 1011.8 |
| 20260906003458 | 85 | 250 | 7.8 | 8.7 | 0.00 | 0.00 | 0.48 | 81 | 1011.6 |
| 20260906002958 | 85 | 239 | 7.0 | 7.0 | 0.00 | 0.00 | 0.48 | 82 | 1011.6 |
| 20260906002458 | 85 | 243 | 7.0 | 7.8 | 0.00 | 0.00 | 0.48 | 83 | 1011.6 |
| 20260906002000 | 85 | 242 | 8.7 | 9.6 | 0.00 | 0.00 | 0.48 | 81 | 1011.6 |
| 20260906001458 | 85 | 252 | 8.7 | 9.6 | 0.00 | 0.00 | 0.48 | 81 | 1011.6 |
| 20260906000958 | 85 | 259 | 7.8 | 9.6 | 0.00 | 0.00 | 0.48 | 82 | 1011.7 |
| 20260906000501 | 86 | 256 | 7.8 | 8.7 | 0.00 | 0.00 | 0.48 | 81 | 1011.8 |
| 20260905235958 | 86 | 256 | 7.8 | 9.6 | 0.00 | 0.00 | 0.48 | 81 | 1011.8 |
| 20260905235458 | 86 | 242 | 7.8 | 9.6 | 0.00 | 0.00 | 0.48 | 80 | 1011.7 |
| 20260905234958 | 86 | 242 | 9.6 | 10.4 | 0.00 | 0.00 | 0.48 | 80 | 1011.7 |
| 20260905234458 | 86 | 239 | 7.0 | 7.8 | 0.00 | 0.00 | 0.48 | 81 | 1011.7 |
| 20260905233958 | 86 | 237 | 6.1 | 7.0 | 0.00 | 0.00 | 0.48 | 82 | 1011.7 |
| 20260905233458 | 86 | 227 | 8.7 | 11.3 | 0.00 | 0.00 | 0.48 | 81 | 1011.6 |
| 20260905233000 | 86 | 233 | 7.8 | 8.7 | 0.00 | 0.00 | 0.48 | 81 | 1011.7 |
| 20260905232459 | 86 | 231 | 7.8 | 9.6 | 0.00 | 0.00 | 0.48 | 82 | 1011.8 |
| 20260905231958 | 86 | 230 | 7.8 | 10.4 | 0.00 | 0.00 | 0.48 | 82 | 1011.8 |
| 20260905231458 | 86 | 228 | 7.8 | 8.7 | 0.00 | 0.00 | 0.48 | 81 | 1011.9 |
| 20260905230958 | 86 | 233 | 6.1 | 7.0 | 0.00 | 0.00 | 0.48 | 80 | 1011.9 |
| 20260905230458 | 86 | 227 | 7.8 | 8.7 | 0.00 | 0.00 | 0.48 | 80 | 1011.9 |
| 20260905225958 | 86 | 234 | 7.0 | 7.8 | 0.00 | 0.00 | 0.48 | 78 | 1012.0 |
| 20260905225458 | 87 | 244 | 7.8 | 7.8 | 0.00 | 0.00 | 0.48 | 79 | 1012.1 |
| 20260905224958 | 87 | 237 | 6.1 | 7.8 | 0.00 | 0.00 | 0.48 | 77 | 1012.2 |
| 20260905224458 | 87 | 262 | 4.3 | 5.2 | 0.00 | 0.00 | 0.48 | 75 | 1012.3 |
| 20260905224001 | 87 | 262 | 3.5 | 4.3 | 0.00 | 0.00 | 0.48 | 75 | 1012.3 |
| 20260905223459 | 87 | 250 | 4.3 | 5.2 | 0.00 | 0.00 | 0.48 | 76 | 1012.3 |
| 20260905222958 | 87 | 233 | 6.1 | 7.0 | 0.00 | 0.00 | 0.48 | 76 | 1012.3 |
| 20260905222458 | 87 | 261 | 3.5 | 5.2 | 0.00 | 0.00 | 0.48 | 73 | 1012.4 |
| 20260905222001 | 87 | 252 | 6.1 | 7.0 | 0.00 | 0.00 | 0.16 | 74 | 1012.4 |
| 20260905221458 | 87 | 250 | 5.2 | 6.1 | 0.00 | 0.00 | 0.16 | 73 | 1012.4 |
| 20260905220958 | 86 | 220 | 4.3 | 5.2 | 0.00 | 0.00 | 0.16 | 76 | 1012.5 |
| 20260905220459 | 86 | 234 | 5.2 | 7.0 | 0.00 | 0.00 | 0.16 | 78 | 1012.4 |
| 20260905215958 | 86 | 231 | 5.2 | 6.1 | 0.00 | 0.00 | 0.16 | 80 | 1012.3 |
| 20260905215458 | 85 | 233 | 7.8 | 9.6 | 0.00 | 0.00 | 0.16 | 79 | 1012.3 |
| 20260905214958 | 85 | 233 | 9.6 | 10.4 | 0.00 | 0.00 | 0.14 | 82 | 1012.1 |
| 20260905214458 | 84 | 231 | 7.8 | 9.6 | 0.00 | 0.00 | 0.14 | 85 | 1012.1 |
| 20260905213959 | 84 | 284 | 2.6 | 4.3 | 0.04 | 0.00 | 0.13 | 86 | 1012.3 |
| 20260905213459 | 85 | 277 | 7.8 | 11.3 | 1.19 | 0.00 | 0.11 | 84 | 1012.5 |
| 20260905212958 | 85 | 245 | 12.2 | 13.9 | 0.00 | 0.00 | 0.09 | 82 | 1012.3 |
| 20260905212458 | 85 | 237 | 12.2 | 13.9 | 0.00 | 0.00 | 0.09 | 82 | 1012.2 |
| 20260905211958 | 86 | 227 | 11.3 | 13.0 | 0.00 | 0.00 | 0.09 | 82 | 1012.4 |
| 20260905211458 | 86 | 226 | 11.3 | 13.0 | 0.00 | 0.00 | 0.09 | 81 | 1012.3 |
| 20260905210958 | 86 | 223 | 12.2 | 13.9 | 0.00 | 0.00 | 0.09 | 82 | 1012.2 |
| 20260905210458 | 87 | 234 | 13.0 | 14.8 | 0.00 | 0.00 | 0.09 | 78 | 1012.2 |
| 20260905205958 | 87 | 233 | 13.0 | 16.5 | 0.00 | 0.00 | 0.09 | 76 | 1012.0 |
| 20260905205458 | 87 | 223 | 11.3 | 13.0 | 0.00 | 0.00 | 0.09 | 77 | 1012.2 |
| 20260905204958 | 87 | 231 | 7.0 | 7.8 | 0.00 | 0.00 | 0.09 | 75 | 1012.3 |
| 20260905204458 | 87 | 239 | 6.1 | 7.8 | 0.00 | 0.00 | 0.09 | 77 | 1012.3 |
| 20260905203959 | 87 | 232 | 9.6 | 11.3 | 0.00 | 0.00 | 0.09 | 74 | 1012.2 |
| 20260905203458 | 87 | 229 | 7.8 | 9.6 | 0.00 | 0.00 | 0.09 | 76 | 1012.2 |
| 20260905202958 | 87 | 243 | 10.4 | 13.0 | 0.00 | 0.00 | 0.09 | 77 | 1012.2 |
| 20260905202459 | 87 | 231 | 11.3 | 13.0 | 0.00 | 0.00 | 0.09 | 76 | 1012.3 |
| 20260905202000 | 87 | 235 | 12.2 | 13.9 | 0.00 | 0.00 | 0.09 | 76 | 1012.4 |
| 20260905201458 | 87 | 239 | 10.4 | 11.3 | 0.00 | 0.00 | 0.09 | 77 | 1012.5 |
| 20260905200958 | 87 | 224 | 12.2 | 13.0 | 0.00 | 0.00 | 0.09 | 76 | 1012.5 |
| 20260905200458 | 87 | 235 | 9.6 | 11.3 | 0.00 | 0.00 | 0.09 | 75 | 1012.5 |
| 20260905195959 | 87 | 229 | 7.8 | 9.6 | 0.00 | 0.00 | 0.09 | 76 | 1012.5 |
| 20260905195459 | 87 | 238 | 9.6 | 11.3 | 0.00 | 0.00 | 0.09 | 75 | 1012.4 |
| 20260905194958 | 87 | 241 | 11.3 | 12.2 | 0.00 | 0.00 | 0.09 | 74 | 1012.5 |
| 20260905194458 | 87 | 247 | 10.4 | 13.0 | 0.00 | 0.00 | 0.09 | 76 | 1012.7 |
| 20260905193958 | 87 | 233 | 9.6 | 11.3 | 0.00 | 0.00 | 0.09 | 76 | 1012.8 |
| 20260905193458 | 87 | 236 | 10.4 | 12.2 | 0.00 | 0.00 | 0.09 | 77 | 1012.9 |
| 20260905192959 | 87 | 231 | 11.3 | 13.9 | 0.00 | 0.00 | 0.09 | 78 | 1012.9 |
| 20260905192458 | 87 | 231 | 11.3 | 13.0 | 0.00 | 0.00 | 0.09 | 76 | 1012.9 |
| 20260905191959 | 87 | 232 | 11.3 | 13.0 | 0.00 | 0.00 | 0.09 | 76 | 1013.0 |
| 20260905191459 | 87 | 232 | 10.4 | 11.3 | 0.00 | 0.00 | 0.09 | 76 | 1012.9 |
| 20260905190527 | 88 | 230 | 8.7 | 11.3 | 0.00 | 0.00 | 0.09 | 74 | 1013.1 |
| 20260905185958 | 88 | 236 | 7.0 | 9.6 | 0.00 | 0.00 | 0.09 | 71 | 1013.2 |
| 20260905185500 | 88 | 233 | 3.5 | 4.3 | 0.00 | 0.00 | 0.09 | 71 | 1013.1 |
| 20260905184958 | 88 | 234 | 4.3 | 5.2 | 0.00 | 0.00 | 0.09 | 71 | 1013.1 |
| 20260905184459 | 88 | 234 | 4.3 | 5.2 | 0.00 | 0.00 | 0.09 | 71 | 1013.1 |
| 20260905183958 | 88 | 233 | 3.5 | 5.2 | 0.00 | 0.00 | 0.09 | 71 | 1013.1 |
| 20260905183458 | 88 | 230 | 3.5 | 4.3 | 0.00 | 0.00 | 0.09 | 72 | 1013.2 |
| 20260905182958 | 88 | 229 | 3.5 | 3.5 | 0.00 | 0.00 | 0.09 | 72 | 1013.3 |
| 20260905182458 | 88 | 228 | 3.5 | 4.3 | 0.00 | 0.00 | 0.09 | 71 | 1013.5 |
| 20260905181958 | 87 | 228 | 2.6 | 3.5 | 0.00 | 0.00 | 0.09 | 72 | 1013.5 |
| 20260905181459 | 87 | 251 | 4.3 | 5.2 | 0.00 | 0.00 | 0.09 | 72 | 1013.6 |
| 20260905180959 | 86 | 261 | 4.3 | 6.1 | 0.00 | 0.00 | 0.09 | 74 | 1013.7 |
| 20260905180458 | 86 | 264 | 5.2 | 6.1 | 0.00 | 0.00 | 0.09 | 74 | 1013.7 |
| 20260905175958 | 86 | 268 | 5.2 | 6.1 | 0.00 | 0.00 | 0.10 | 76 | 1013.8 |
| 20260905175458 | 85 | 267 | 7.0 | 7.8 | 0.00 | 0.00 | 0.10 | 76 | 1013.8 |
| 20260905174959 | 85 | 272 | 7.0 | 7.8 | 0.00 | 0.00 | 0.10 | 77 | 1013.8 |
| 20260905174459 | 85 | 295 | 3.5 | 5.2 | 0.00 | 0.00 | 0.10 | 80 | 1014.0 |
| 20260905173958 | 85 | 276 | 6.1 | 8.7 | 0.00 | 0.00 | 0.10 | 79 | 1014.1 |
| 20260905173458 | 85 | 287 | 4.3 | 5.2 | 0.00 | 0.00 | 0.10 | 79 | 1014.1 |
| 20260905172958 | 85 | 292 | 4.3 | 5.2 | 0.00 | 0.00 | 0.10 | 80 | 1014.2 |
| 20260905172458 | 84 | 269 | 3.5 | 4.3 | 0.00 | 0.00 | 0.10 | 85 | 1014.3 |
| 20260905171958 | 83 | 269 | 3.5 | 6.1 | 0.00 | 0.00 | 0.09 | 87 | 1014.2 |
| 20260905171458 | 83 | 290 | 2.6 | 3.5 | 0.00 | 0.00 | 0.09 | 88 | 1014.3 |
| 20260905170958 | 83 | 275 | 2.6 | 4.3 | 0.00 | 0.00 | 0.09 | 90 | 1014.4 |
| 20260905170458 | 82 | 259 | 2.6 | 2.6 | 0.00 | 0.00 | 0.07 | 91 | 1014.5 |
| 20260905165958 | 81 | 262 | 2.6 | 3.5 | 0.00 | 0.00 | 0.07 | 91 | 1014.6 |
| 20260905165458 | 81 | 277 | 2.6 | 3.5 | 0.00 | 0.00 | 0.20 | 91 | 1014.6 |
| 20260905164959 | 81 | 282 | 1.7 | 1.7 | 0.00 | 0.00 | 0.20 | 90 | 1014.5 |
| 20260905164458 | 82 | 300 | 1.7 | 4.3 | 0.27 | 0.00 | 0.19 | 89 | 1014.5 |
| 20260905163958 | 84 | 301 | 2.6 | 3.5 | 1.28 | 0.00 | 0.14 | 85 | 1014.6 |
| 20260905163459 | 87 | 285 | 9.6 | 12.2 | 1.25 | 0.00 | 0.04 | 81 | 1014.5 |
| 20260905162959 | 87 | 274 | 5.2 | 6.1 | 0.00 | 0.00 | 0.00 | 73 | 1014.5 |
| 20260905162459 | 87 | 288 | 3.5 | 5.2 | 0.00 | 0.00 | 0.00 | 74 | 1014.6 |
| 20260905161958 | 87 | 275 | 6.1 | 7.0 | 0.00 | 0.00 | 0.00 | 73 | 1014.5 |
| 20260905161459 | 87 | 277 | 5.2 | 7.0 | 0.00 | 0.00 | 0.00 | 71 | 1014.6 |
| 20260905160959 | 87 | 289 | 2.6 | 3.5 | 0.00 | 0.00 | 0.00 | 72 | 1014.7 |
| 20260905160458 | 86 | 268 | 4.3 | 5.2 | 0.00 | 0.00 | 0.00 | 74 | 1014.7 |
| 20260905160003 | 86 | 270 | 5.2 | 5.2 | 0.00 | 0.00 | 0.00 | 74 | 1014.7 |
| 20260905155458 | 86 | 272 | 5.2 | 6.1 | 0.00 | 0.00 | 0.00 | 75 | 1014.7 |
| 20260905154958 | 86 | 260 | 4.3 | 5.2 | 0.00 | 0.00 | 0.00 | 77 | 1014.7 |
| 20260905154458 | 85 | 251 | 3.5 | 3.5 | 0.00 | 0.00 | 0.00 | 78 | 1014.7 |
| 20260905153958 | 85 | 260 | 4.3 | 5.2 | 0.00 | 0.00 | 0.00 | 79 | 1014.6 |
| 20260905153459 | 86 | 244 | 3.5 | 4.3 | 0.00 | 0.00 | 0.00 | 78 | 1014.7 |
| 20260905153000 | 86 | 264 | 4.3 | 5.2 | 0.00 | 0.00 | 0.00 | 76 | 1014.8 |
| 20260905152458 | 86 | 255 | 4.3 | 5.2 | 0.00 | 0.00 | 0.00 | 77 | 1014.9 |
| 20260905151959 | 86 | 278 | 1.7 | 2.6 | 0.00 | 0.00 | 0.00 | 76 | 1015.0 |
| 20260905151458 | 85 | 299 | 0.9 | 1.7 | 0.00 | 0.00 | 0.00 | 79 | 1015.0 |
| 20260905150958 | 85 | 286 | 1.7 | 3.5 | 0.00 | 0.00 | 0.00 | 78 | 1015.0 |
| 20260905150458 | 85 | 263 | 2.6 | 3.5 | 0.00 | 0.00 | 0.00 | 82 | 1015.0 |
| 20260905145958 | 86 | 295 | 3.5 | 4.3 | 0.00 | 0.00 | 0.00 | 81 | 1015.0 |
| 20260905145459 | 86 | 321 | 1.7 | 3.5 | 0.00 | 0.00 | 0.00 | 80 | 1014.9 |
| 20260905144959 | 86 | 293 | 1.7 | 3.5 | 0.00 | 0.00 | 0.00 | 80 | 1015.0 |
| 20260905144458 | 86 | 306 | 1.7 | 3.5 | 0.00 | 0.00 | 0.00 | 81 | 1015.0 |
| 20260905143958 | 86 | 331 | 0.9 | 1.7 | 0.00 | 0.00 | 0.00 | 81 | 1015.1 |
| 20260905143500 | 85 | 330 | 0.9 | 3.5 | 0.00 | 0.00 | 0.00 | 83 | 1015.2 |
| 20260905142959 | 85 | 314 | 1.7 | 4.3 | 0.00 | 0.00 | 0.00 | 84 | 1015.2 |
| 20260905142458 | 84 | 359 | 2.6 | 4.3 | 0.00 | 0.00 | 0.00 | 85 | 1015.0 |
| 20260905141959 | 84 | 354 | 2.6 | 6.1 | 0.00 | 0.00 | 0.00 | 85 | 1015.0 |